When you browse on this site, cookies collect data to enhance your experience and personalize the content and advertising you see.
Visit our Privacy Policy to learn more. By continuing to use the site, you agree to this use of cookies and data.
  • In France
  • List of Countries
  • For 7 days
  • Water Temperature
  • Weather Map
  • Weather Widgets
  • user-avatar
    Login

    Hourly Weather Mostar

    Today, 21 November, Thursday

    Time Temperature Precipitation Wind Pressure Humidity
    00:00 +13°C° 0.2 mm 2 mps 753 mmHg 91%
    01:00 +13°C° 0.2 mm 2 mps 753 mmHg 91%
    02:00 +12°C° 0.1 mm 2 mps 753 mmHg 90%
    03:00 +12°C° 0.1 mm 2 mps 753 mmHg 89%
    04:00 +12°C° 0.1 mm 2 mps 753 mmHg 88%
    05:00 +12°C° 0.1 mm 2 mps 753 mmHg 88%
    06:00 +12°C° 0.1 mm 2 mps 753 mmHg 87%
    07:00 +12°C° 0.1 mm 2 mps 753 mmHg 87%
    08:00 +13°C° 0.1 mm 2 mps 753 mmHg 83%
    09:00 +13°C° 0.1 mm 3 mps 753 mmHg 80%
    10:00 +16°C° 0.1 mm 3 mps 753 mmHg 76%
    11:00 +16°C° 0.3 mm 3 mps 752 mmHg 76%
    12:00 +16°C° 0.3 mm 3 mps 752 mmHg 76%
    13:00 +16°C° 0.3 mm 3 mps 752 mmHg 76%
    14:00 +15°C° 0.2 mm 2 mps 752 mmHg 79%
    15:00 +15°C° 0.2 mm 2 mps 752 mmHg 81%
    16:00 +14°C° 0.2 mm 1 mps 752 mmHg 83%
    17:00 +13°C° 0 mm 1 mps 752 mmHg 84%
    18:00 +13°C° 0 mm 1 mps 752 mmHg 85%
    19:00 +12°C° 0 mm 1 mps 753 mmHg 86%
    20:00 +12°C° 0 mm 1 mps 753 mmHg 86%
    21:00 +12°C° 0 mm 1 mps 753 mmHg 87%
    22:00 +12°C° 0 mm 1 mps 753 mmHg 87%
    23:00 +12°C° 0 mm 1 mps 753 mmHg 87%

    Tomorrow, 22 November, Friday

    Time Temperature Precipitation Wind Pressure Humidity
    00:00 +12°C° 0 mm 1 mps 753 mmHg 87%
    01:00 +12°C° 0 mm 1 mps 753 mmHg 86%
    02:00 +11°C° 0 mm 1 mps 753 mmHg 86%
    03:00 +11°C° 0 mm 1 mps 753 mmHg 86%
    04:00 +11°C° 0 mm 1 mps 753 mmHg 86%
    05:00 +11°C° 0 mm 1 mps 753 mmHg 86%
    06:00 +11°C° 0 mm 1 mps 753 mmHg 86%
    07:00 +10°C° 0 mm 1 mps 754 mmHg 86%
    08:00 +12°C° 0 mm 1 mps 754 mmHg 82%
    09:00 +13°C° 0 mm 1 mps 754 mmHg 79%
    10:00 +15°C° 0 mm 2 mps 754 mmHg 75%
    11:00 +15°C° 0 mm 2 mps 754 mmHg 73%
    12:00 +16°C° 0 mm 2 mps 753 mmHg 71%
    13:00 +16°C° 0 mm 2 mps 753 mmHg 70%
    14:00 +15°C° 0 mm 2 mps 753 mmHg 74%
    15:00 +14°C° 0 mm 2 mps 753 mmHg 78%
    16:00 +14°C° 0 mm 2 mps 753 mmHg 83%
    17:00 +13°C° 0 mm 2 mps 753 mmHg 84%
    18:00 +13°C° 0 mm 2 mps 754 mmHg 85%
    19:00 +12°C° 0 mm 2 mps 754 mmHg 86%
    20:00 +12°C° 0 mm 2 mps 754 mmHg 87%
    21:00 +12°C° 0 mm 2 mps 754 mmHg 88%
    22:00 +10°C° 0 mm 2 mps 754 mmHg 88%
    23:00 +10°C° 0 mm 2 mps 754 mmHg 88%

    Day after tomorrow, 23 November, Saturday

    Time Temperature Precipitation Wind Pressure Humidity
    00:00 +10°C° 0 mm 2 mps 754 mmHg 88%
    01:00 +10°C° 0 mm 2 mps 754 mmHg 88%
    02:00 +10°C° 0 mm 2 mps 754 mmHg 87%
    03:00 +10°C° 0 mm 2 mps 754 mmHg 86%
    04:00 +10°C° 0 mm 2 mps 754 mmHg 85%
    05:00 +10°C° 0 mm 2 mps 754 mmHg 85%
    06:00 +10°C° 0 mm 2 mps 754 mmHg 84%
    07:00 +10°C° 0 mm 2 mps 754 mmHg 84%
    08:00 +12°C° 0 mm 2 mps 754 mmHg 79%
    09:00 +13°C° 0 mm 3 mps 754 mmHg 75%
    10:00 +14°C° 0 mm 3 mps 753 mmHg 71%
    11:00 +14°C° 0 mm 3 mps 753 mmHg 71%
    12:00 +15°C° 0 mm 4 mps 753 mmHg 71%
    13:00 +15°C° 0 mm 4 mps 752 mmHg 70%
    14:00 +15°C° 0 mm 4 mps 752 mmHg 74%
    15:00 +14°C° 0 mm 3 mps 752 mmHg 78%
    16:00 +13°C° 0 mm 3 mps 752 mmHg 83%
    17:00 +13°C° 0 mm 3 mps 752 mmHg 83%
    18:00 +13°C° 0 mm 3 mps 752 mmHg 84%
    19:00 +12°C° 0 mm 3 mps 753 mmHg 85%
    20:00 +12°C° 0 mm 3 mps 753 mmHg 84%
    21:00 +12°C° 0 mm 3 mps 753 mmHg 84%
    22:00 +11°C° 0 mm 3 mps 753 mmHg 84%
    23:00 +11°C° 0 mm 3 mps 753 mmHg 83%

    24 November, Sunday

    Time Temperature Precipitation Wind Pressure Humidity
    00:00 +12°C° 0 mm 2 mps 753 mmHg 82%
    01:00 +12°C° 0 mm 2 mps 753 mmHg 81%
    02:00 +12°C° 0 mm 2 mps 753 mmHg 80%
    03:00 +12°C° 0 mm 2 mps 753 mmHg 79%
    04:00 +12°C° 0 mm 2 mps 752 mmHg 78%
    05:00 +12°C° 0 mm 2 mps 752 mmHg 77%
    06:00 +12°C° 0 mm 2 mps 752 mmHg 76%
    07:00 +12°C° 0 mm 2 mps 752 mmHg 75%
    08:00 +13°C° 0 mm 2 mps 752 mmHg 72%
    09:00 +15°C° 0 mm 2 mps 752 mmHg 69%
    10:00 +16°C° 0 mm 2 mps 753 mmHg 66%
    11:00 +17°C° 0 mm 2 mps 752 mmHg 63%
    12:00 +18°C° 0 mm 2 mps 752 mmHg 61%
    13:00 +19°C° 0 mm 1 mps 751 mmHg 59%
    14:00 +19°C° 0 mm 1 mps 751 mmHg 62%
    15:00 +18°C° 0 mm 1 mps 751 mmHg 66%
    16:00 +16°C° 0 mm 1 mps 751 mmHg 70%
    17:00 +15°C° 0 mm 2 mps 751 mmHg 72%
    18:00 +14°C° 0 mm 2 mps 751 mmHg 73%
    19:00 +14°C° 0 mm 2 mps 751 mmHg 75%
    20:00 +13°C° 0 mm 2 mps 751 mmHg 76%
    21:00 +12°C° 0 mm 3 mps 751 mmHg 77%
    22:00 +12°C° 0 mm 3 mps 751 mmHg 77%
    23:00 +11°C° 0 mm 3 mps 751 mmHg 77%

    25 November, Monday

    Time Temperature Precipitation Wind Pressure Humidity
    00:00 +11°C° 0 mm 3 mps 751 mmHg 77%
    01:00 +11°C° 0 mm 3 mps 751 mmHg 76%
    02:00 +10°C° 0 mm 2 mps 751 mmHg 76%
    03:00 +10°C° 0 mm 2 mps 751 mmHg 76%
    04:00 +10°C° 0 mm 2 mps 751 mmHg 76%
    05:00 +10°C° 0 mm 2 mps 751 mmHg 77%
    06:00 +9°C° 0 mm 3 mps 751 mmHg 77%
    07:00 +9°C° 0 mm 3 mps 751 mmHg 77%
    08:00 +12°C° 0 mm 2 mps 751 mmHg 74%
    09:00 +13°C° 0 mm 2 mps 751 mmHg 70%
    10:00 +15°C° 0 mm 2 mps 752 mmHg 67%
    11:00 +16°C° 0 mm 2 mps 751 mmHg 64%
    12:00 +17°C° 0 mm 2 mps 751 mmHg 61%
    13:00 +18°C° 0 mm 2 mps 751 mmHg 59%
    14:00 +17°C° 0 mm 2 mps 751 mmHg 63%
    15:00 +16°C° 0 mm 2 mps 751 mmHg 68%
    16:00 +15°C° 0 mm 2 mps 751 mmHg 72%
    17:00 +14°C° 0 mm 2 mps 751 mmHg 74%
    18:00 +13°C° 0 mm 2 mps 751 mmHg 75%
    19:00 +12°C° 0 mm 2 mps 752 mmHg 77%
    20:00 +12°C° 0 mm 2 mps 752 mmHg 77%
    21:00 +10°C° 0 mm 2 mps 752 mmHg 78%
    22:00 +10°C° 0 mm 2 mps 752 mmHg 78%
    23:00 +10°C° 0 mm 2 mps 752 mmHg 78%

    26 November, Tuesday

    Time Temperature Precipitation Wind Pressure Humidity
    00:00 +9°C° 0 mm 2 mps 752 mmHg 78%
    01:00 +9°C° 0 mm 2 mps 752 mmHg 78%
    02:00 +9°C° 0 mm 2 mps 752 mmHg 78%
    03:00 +9°C° 0 mm 2 mps 752 mmHg 78%
    04:00 +9°C° 0 mm 2 mps 752 mmHg 77%
    05:00 +9°C° 0 mm 2 mps 753 mmHg 77%
    06:00 +8°C° 0 mm 2 mps 753 mmHg 77%
    07:00 +8°C° 0 mm 2 mps 753 mmHg 76%
    08:00 +10°C° 0 mm 2 mps 753 mmHg 73%
    09:00 +12°C° 0 mm 2 mps 753 mmHg 70%
    10:00 +14°C° 0 mm 1 mps 753 mmHg 66%
    11:00 +14°C° 0 mm 1 mps 753 mmHg 64%
    12:00 +15°C° 0 mm 1 mps 753 mmHg 62%
    13:00 +16°C° 0 mm 1 mps 753 mmHg 60%
    14:00 +15°C° 0 mm 1 mps 753 mmHg 65%
    15:00 +13°C° 0 mm 0 mps 753 mmHg 70%
    16:00 +12°C° 0 mm 0 mps 753 mmHg 75%
    17:00 +12°C° 0 mm 0 mps 753 mmHg 76%
    18:00 +12°C° 0 mm 1 mps 753 mmHg 77%
    19:00 +12°C° 0 mm 1 mps 754 mmHg 77%
    20:00 +11°C° 0 mm 1 mps 754 mmHg 77%
    21:00 +11°C° 0 mm 1 mps 754 mmHg 77%
    22:00 +11°C° 0 mm 1 mps 754 mmHg 77%
    23:00 +11°C° 0 mm 1 mps 754 mmHg 77%
    Show more